Montana Department of Transportation

Main Content

Accidents and Incidents Report

Hourly Weather Roundup

ASUS45 KTFX 250410

RWRMT 

Montana Regional Weather Roundup

National Weather Service Great Falls MT

1000 PM MDT MON JUN 24 2019



NOTE: "FAIR" indicates few or no clouds below 12,000 feet with no

significant weather and/or obstructions to visibility.



MTZ001.007-043-250500-

West of the divide

  

CITY           SKY/WX    TMP DP  RH WIND       PRES   REMARKS

Kalispell      FAIR      57  42  57 CALM      29.87S                  

Missoula       FAIR      59  28  30 NW6       29.88R                  

Butte          MOCLDY    56  34  43 CALM      29.96R                  

Anaconda         N/A     57  34  41 SW5       29.93R                  

Deer Lodge       N/A     48  37  66 W7        29.94R                  

Hamilton       MOCLDY    55  45  67 SE3       29.89R                  

Libby            N/A     57  43  58 S3        29.89R                  

Mullan Pass    FAIR      46  30  53 W6        29.98S                  

--------------------------------



MTZ008-052.055-250500-

Southwest Montana

  

CITY           SKY/WX    TMP DP  RH WIND       PRES   REMARKS

Bozeman        MOCLDY    58  41  53 NE6       29.90R                  

Dillon         CLOUDY    55  36  48 NE8       29.91R                  

Ennis          CLOUDY    50  39  66 NE5       29.95R                  

Three Forks      N/A     57  45  64 CALM      29.91R                  

Twin Bridges     N/A     62  30  30 N9        29.91R                  

W Yellowstone  MOCLDY    48  48 100 S5        29.99R                  

--------------------------------



MTZ009-010-012-014-046-048-049-054-250500-

East Slopes and Central Montana

  

CITY           SKY/WX    TMP DP  RH WIND       PRES   REMARKS

Cut Bank       MOCLDY    52  40  63 W9        29.87R                  

Great Falls    FAIR      55  44  66 E7        29.88R                  

Helena         FAIR      59  35  40 W9        29.87S                  

Malmstrom AFB  CLEAR     53  44  72 E3        29.89R                  

Augusta        FAIR      54  29  38 NW13      29.90R                  

Bowmans Corner FAIR      51  40  67 NE8       29.89R                  

Choteau          N/A     54  43  66 SE7       29.88R                  

Fairfield      FAIR      54  43  65 SE6       29.88R                  

White Sulphur  HAZE      45  37  76 CALM      29.91R VSB 0            

--------------------------------



MTZ011-013-016-021-045-047-050-051-250500-

North Central Montana

  

CITY           SKY/WX    TMP DP  RH WIND       PRES   REMARKS

Havre          FAIR      54  48  80 SW10      29.82R                  

Lewistown      FAIR      50  43  77 S6        29.91R                  

Chinook          N/A     57  48  72 SW7       29.82S                  

Denton         FAIR      52  47  84 CALM      29.87R                  

Fort Benton      N/A     57  46  67 CALM      29.87R                  

Geyser         FAIR      50  46  85 NE8       29.90R                  

Grass Range    FAIR      48  44  85 SW6       29.87R                  

Judith Gap     FAIR      46  41  80 N3        29.92R                  

--------------------------------



MTZ017.020-022.027-061-062-250500-

Northeast Montana

  

CITY           SKY/WX    TMP DP  RH WIND       PRES   REMARKS

Glasgow        MOCLDY    58  48  69 W6        29.79R                  

Culbertson       N/A     57  54  88 W12       29.75R                  

Glendive       FAIR      53  48  83 W9        29.82R                  

Jordan           N/A     56  49  77 W3        29.84R                  

Poplar           N/A     55  52  88 W3        29.78R                  

Sidney         FAIR      57  51  80 W8        29.77R                  

Wolf Point     MOCLDY    59  49  69 W8        29.79R                  

--------------------------------



MTZ028.42-056.058-250500-

Southcentral and southeast Montana

  

CITY           SKY/WX    TMP DP  RH WIND       PRES   REMARKS

Baker          FAIR      52  47  83 W8        29.84R                  

Big Timber     MOCLDY    54  41  62 N6        29.92RBillings       CLOUDY    58  50  75 NE5       29.92R                  

Forsyth          N/A     61  48  63 NW3       29.87R                  

Harlowton      FAIR      52  42  71 CALM      29.91R                  

Laurel           N/A     55  52  88 S7        29.94R FOG              

Livingston     FAIR      57  41  55 CALM      29.89R                  

Miles City     FAIR      54  48  80 NW3       29.85R                  

--------------------------------



Regional Reports...Dakotas/MN

  

CITY           SKY/WX    TMP DP  RH WIND       PRES   REMARKS

Williston      FAIR      58  54  86 W10       29.74R                  

Minot          CLOUDY    62  53  72 SW13      29.67R                  

Dickinson      FAIR      54  52  93 W12       29.76R                  

Beach          FAIR      54  54 100 W9        29.82R                  

Crosby         MOCLDY    57  57 100 W8        29.71S                  

Hettinger      FAIR      49  48  97 W6        29.80S                  

Tioga          FAIR      52  52 100 W9        29.74R                  

Watford City   FAIR      55  55 100 W8        29.74R                  

Bismarck       FAIR      62  51  67 W5        29.72R                  

Grand Forks    TSTM      62  56  80 W15G23    29.61R                  

Fargo          CLOUDY    65  59  81 SW10      29.66R                  

Buffalo SD       N/A     58  47  66 NW8       29.82R                  

Rapid City     FAIR      57  51  80 W3        29.86R                  

Intl Falls     MOCLDY    60  59  96 SW6       29.56R                  

Duluth         FAIR      60  55  83 W10       29.62R                  

Minneapolis    FAIR      64  57  78 SE3       29.68S                  

--------------------------------



Regional Reports...WY/ID/WA

  

CITY           SKY/WX    TMP DP  RH WIND       PRES   REMARKS

Buffalo WY     MOCLDY    54  43  66 NW9       29.96R                  

Cody           MOCLDY    55  41  59 NE5       29.95S                  

Gillette       FAIR      54  46  74 NW3       29.91R                  

Powell         MOCLDY    54  36  50 N3        29.93                   

Sheridan       FAIR      58  46  64 W8        29.92R                  

Yellowstone La   N/A     44  38  79 CALM      30.07R                  

Boise          FAIR      73  37  27 CALM      29.82S                  

Couer d'Alene  FAIR      59  41  51 S5        29.88S                  

Idaho Falls    FAIR      66  32  28 S15       29.90S                  

Salmon         MOCLDY    63  36  36 N10       29.88R                  

Spokane        FAIR      65  35  33 S6        29.87S                  

Seattle        FAIR      63  44  50 NW5       29.94S                  

--------------------------------



Regional Reports...Alberta

  

CITY           SKY/WX    TMP DP  RH WIND       PRES   REMARKS

Calgary        MOCLDY    57  41  54 W5        29.81S                  

Crowsnest Pass   N/A     48  43  81 W6          N/A                   

Edmonton       MOCLDY    54  52  94 W6        29.74R                  

Fort McMurray  MOCLDY    57  50  77 N7        29.70S                  

High Level     LGT RAIN  59  55  88 E7        29.82R                  

Lethbridge     MOCLDY    52  46  82 SW8       29.82R                  

Lloydminster   MOCLDY    54  52  94 W8        29.69R                  

Milk River       N/A     52  45  76 W6          N/A                   

Peace River    CLOUDY    57  52  82 N5        29.82R                  

Pincher Creek  CLEAR     52  41  66 MISG      29.86S                  

Raymond          N/A     52  46  82 SW5         N/A                   

Waterton Gate    N/A     52  39  62 SW13G18     N/A                   

Fort Smith NWT PTCLDY    68  46  45 NE3       29.72R                  

--------------------------------



Regional Reports...Saskatchewan

  

CITY           SKY/WX    TMP DP  RH WIND       PRES   REMARKS

Assiniboia       N/A     54  50  87 SW8         N/A                   

Coronach         N/A     55  50  82 SW9         N/ACypress Hills    N/A     48  36  61 W5          N/A                   

Estevan        CLOUDY    57  54  88 SW9       29.69R                  

La Ronge         N/A     57  48  72 N5          N/A                   

Moose Jaw        N/A     57  52  82 W1          N/A                   

Prince Albert  MOCLDY    59  52  77 W6        29.64R                  

Regina         MOCLDY    54  50  87 W10       29.68S                  

Rockglen         N/A     54  48  82 SW9         N/A                   

Saskatoon      PTCLDY    55  52  88 W6        29.68R                  

Swift Current  LGT RAIN  55  45  67 SW23      29.75R                  

Uranium City     N/A     59  46  63 NE14        N/A                   

Val Marie        N/A     54  48  82 W8          N/A                   

--------------------------------